Probability
0 0 0 0 0 0 0 0 0 0 0 0 0 0 0 0 0 0 0 0 0 0 0 0 0 1 2 2 2 3 4 3 2 1 1 1 3 7 9 9 8 6 4
0 0 0 0 0 0 0 0 0 0 0 0 0 0 0 0 0 0 0 0 0 0 0 0 0 0 1 1 2 3 5 5 4 2 2 3 4 6 7 7 6 5 3
0 0 0 0 0 0 0 0 0 0 0 0 0 0 0 0 0 0 0 0 0 0 0 0 0 0 0 0 2 4 5 6 4 2 2 3 5 6 6 5 3 2 1
0 0 0 0 0 0 0 0 0 0 0 0 0 0 0 0 0 0 0 0 0 0 0 0 0 0 1 1 2 3 4 4 4 2 2 3 4 5 5 4 3 1 1
0 0 0 0 0 0 0 0 0 0 0 0 0 0 0 0 0 0 0 0 0 0 0 0 1 1 2 2 2 1 2 4 5 4 3 3 3 4 4 4 4 3 3
0 0 0 0 0 0 0 0 0 0 0 0 0 0 0 0 0 0 0 0 0 0 0 0 1 2 2 2 2 1 1 4 6 5 4 3 3 3 3 4 4 4 4
0 0 0 0 0 0 0 0 0 0 0 0 0 0 0 0 0 0 0 0 0 0 0 0 1 1 1 1 2 2 1 3 5 5 3 2 1 2 3 3 4 4 4
0 0 0 0 0 0 0 0 0 0 0 0 0 0 0 0 0 0 0 0 0 0 0 0 0 0 0 0 1 2 1 2 4 5 4 1 0 1 2 3 3 3 3
0 0 0 0 0 0 0 0 0 0 0 0 0 0 0 0 0 0 0 0 0 0 0 0 0 0 0 0 0 1 1 1 3 4 5 2 0 0 1 2 3 3 3
0 0 0 0 0 0 0 0 0 0 0 0 0 0 0 0 0 0 0 0 0 0 0 0 0 0 0 0 0 0 0 1 2 4 5 4 2 0 0 1 1 2 2
0 0 0 0 0 0 0 0 0 0 0 0 0 0 0 0 0 0 0 0 0 0 0 0 0 0 0 0 0 0 0 0 1 3 5 6 4 1 0 1 1 1 1
0 0 0 0 0 0 0 0 0 0 0 0 0 0 0 0 0 0 0 0 0 0 0 0 0 0 0 0 0 0 0 0 1 3 5 7 6 2 1 1 0 0 1
0 0 0 0 0 0 0 0 0 0 0 0 0 0 0 0 0 0 0 0 0 0 0 0 0 0 0 0 0 0 0 1 2 3 5 6 5 3 2 1 1 2 2
0 0 0 0 0 0 0 0 0 0 0 0 0 0 0 0 0 0 0 0 0 0 0 0 0 0 0 0 0 0 0 1 2 3 3 3 2 1 2 2 3 4 4
0 0 0 0 0 0 0 0 0 0 0 0 0 0 0 0 0 0 0 0 0 0 0 0 0 0 0 0 1 1 1 1 2 2 1 1 0 0 1 2 3 4 4
0 0 0 0 0 0 0 0 0 0 0 0 0 0 0 0 0 0 0 0 0 0 0 0 0 0 0 0 1 2 2 1 1 1 0 0 0 0 0 0 1 2 2
0 0 0 0 0 0 0 0 0 0 0 0 0 0 0 0 0 0 0 0 0 0 0 0 0 0 0 0 1 1 2 1 0 0 0 0 0 0 0 0 0 0 0
0 0 0 0 0 0 0 0 0 0 0 0 0 0 0 0 0 0 0 0 0 0 0 0 0 0 0 0 0 0 1 1 1 0 0 0 0 0 0 0 0 0 0
0 0 0 0 0 0 0 0 0 0 0 0 0 0 0 0 0 0 0 0 0 0 0 0 0 0 0 0 0 1 1 2 1 0 0 0 0 0 0 0 0 0 0
0 0 0 0 0 0 0 0 0 0 0 0 0 0 0 0 0 0 0 0 0 0 0 0 0 0 0 0 0 1 1 1 1 0 0 0 0 0 0 0 0 0 0
0 0 0 0 0 0 0 0 0 0 0 0 0 0 0 0 0 0 0 0 0 0 0 0 0 0 0 0 0 0 0 0 0 0 0 0 0 0 0 0 0 0 0
0 0 0 0 0 0 0 0 0 0 0 0 0 0 0 0 0 0 0 0 0 0 0 0 0 0 0 0 0 0 0 0 0 0 0 0 0 0 0 0 0 0 0
0 0 0 0 0 0 0 0 0 0 0 0 0 0 0 0 0 0 0 0 0 0 0 0 0 0 0 0 0 0 0 0 0 0 0 0 0 0 0 0 0 0 0
0 0 0 0 0 0 0 0 0 0 0 0 0 0 0 0 0 0 0 0 0 0 0 0 0 0 0 0 0 0 0 0 0 0 0 0 0 0 0 0 0 0 0
0 0 0 0 0 0 0 0 0 0 0 0 0 0 0 0 0 0 0 0 0 0 0 0 0 0 0 0 0 0 0 0 0 0 0 0 0 0 0 0 0 0 0
0 0 0 0 0 0 0 0 0 0 0 0 0 0 0 0 0 0 0 0 0 0 0 0 0 0 0 0 0 0 0 0 0 0 0 0 0 0 0 0 0 0 0
Wind_Speed
3 3 3 3 3 2 3 3 3 4 4 4 4 4 4 4 4 3 3 8 9 9 9 8 9 9 8 8 8 9 9 9 8 7 7 6 6 6 6 6 5 5 5
3 3 3 3 3 3 2 2 3 3 3 3 4 4 3 3 3 3 3 5 9 9 9 9 9 9 9 8 8 8 8 8 8 7 6 6 6 5 6 6 5 5 5
3 2 3 3 2 2 3 3 3 3 3 3 3 3 3 3 3 3 4 3 4 8 10 9 9 9 9 8 7 7 7 7 7 7 7 6 5 5 5 5 5 4 4
3 3 2 2 2 2 2 2 3 3 3 3 2 2 3 3 3 3 3 4 3 4 6 9 9 9 9 9 8 7 7 7 7 7 7 6 6 6 6 5 5 4 4
3 3 2 2 2 3 3 2 3 2 2 2 2 2 3 3 3 3 3 4 4 4 4 7 9 8 9 9 9 8 7 7 6 6 6 6 5 5 5 5 5 5 4
3 3 2 3 3 3 3 3 2 2 2 1 2 3 2 2 2 3 3 3 3 4 4 4 4 6 8 9 9 9 8 7 6 6 6 5 5 5 4 5 5 5 5
2 2 2 2 2 2 2 2 2 3 2 2 2 3 3 2 2 2 2 2 3 3 3 4 3 3 4 8 8 8 7 6 6 6 6 5 4 4 4 4 4 4 4
2 2 2 2 2 2 3 3 2 2 2 2 2 2 3 4 3 3 2 2 3 3 3 4 3 3 3 3 5 8 7 7 6 6 6 5 4 4 3 3 3 3 4
1 1 1 2 2 2 1 1 1 2 1 2 2 2 2 1 3 3 2 2 2 2 2 3 3 3 3 2 3 6 7 7 6 6 5 4 4 4 4 3 3 2 3
1 1 1 1 1 1 1 1 2 1 2 1 1 1 1 2 1 2 3 2 2 2 2 3 3 3 3 2 3 6 6 6 6 6 5 5 4 3 3 3 3 3 2
0 1 1 1 1 1 1 1 1 1 1 1 0 0 1 1 1 1 2 3 3 2 2 2 2 2 3 2 2 4 6 6 6 6 6 5 4 3 3 3 3 3 2
0 1 1 1 1 1 0 0 1 1 1 1 1 0 1 1 1 1 1 2 3 3 2 2 2 2 2 2 3 5 5 5 5 6 6 6 5 3 3 3 3 4 3
1 1 0 0 0 0 1 1 1 0 0 1 0 0 0 1 1 1 1 1 2 3 2 2 1 2 2 2 3 5 5 5 5 5 6 6 5 4 4 3 3 3 3
3 2 2 1 1 1 0 1 0 0 0 0 0 1 1 1 1 1 2 1 1 2 2 3 2 2 2 2 4 5 3 5 5 5 5 5 5 4 4 3 3 3 3
2 2 2 2 1 0 0 1 0 1 0 1 1 1 1 1 1 1 1 2 2 2 3 2 2 2 2 2 4 2 2 5 6 6 5 5 4 4 4 3 3 3 3
2 2 2 2 1 1 0 0 0 1 0 1 1 1 1 1 1 1 1 1 2 2 2 2 2 2 3 3 5 3 2 5 6 6 6 5 4 4 4 3 2 2 2
3 3 3 2 2 1 1 1 1 1 1 1 1 1 2 1 1 1 1 1 1 2 2 3 2 2 1 2 4 3 2 2 3 6 6 5 5 4 4 3 2 2 2
3 3 3 3 2 2 2 2 2 1 1 1 2 2 2 1 2 2 1 1 1 2 2 3 2 1 2 2 2 3 3 2 2 5 6 5 5 4 3 2 2 2 2
3 2 3 3 2 2 2 2 2 2 2 2 2 2 2 2 2 2 1 1 1 1 2 2 2 1 1 1 2 2 3 2 3 4 5 5 6 5 4 3 2 2 2
3 3 2 2 2 2 2 2 2 1 1 1 2 2 2 2 3 2 2 2 1 1 0 1 1 1 1 1 0 1 2 2 2 3 4 5 6 6 5 4 3 3 3
3 3 2 1 1 1 2 2 1 1 1 1 1 2 2 2 2 1 1 1 1 1 0 1 1 1 1 1 1 1 1 2 2 1 2 2 3 2 3 4 4 4 3
2 2 2 2 1 1 2 2 1 2 1 1 1 2 2 2 2 3 3 1 1 1 2 1 1 1 2 2 1 1 1 1 2 2 1 2 1 2 2 1 3 4 4
2 2 2 2 1 1 2 2 2 1 1 1 1 1 2 2 2 1 2 4 3 2 2 2 2 3 3 2 1 1 0 1 2 2 1 1 1 1 2 2 4 4 4
3 2 2 2 1 2 1 1 1 1 1 1 1 1 1 2 1 0 0 1 2 2 2 2 2 3 3 2 3 2 2 0 1 2 0 1 1 2 3 2 3 4 4
2 2 2 2 2 2 1 0 1 1 1 1 1 1 1 1 2 1 1 0 2 3 3 3 3 3 2 1 1 2 1 1 1 2 1 0 1 2 2 2 3 5 4
3 2 1 1 2 2 1 0 1 1 1 0 1 1 2 2 2 2 1 1 2 3 2 3 3 4 2 1 0 1 2 2 1 2 1 0 1 1 2 1 2 2 3
Wind_Direction
42 39 39 40 41 45 56 57 55 53 50 43 44 53 48 43 36 29 16 29 35 37 39 39 38 37 36 40 43 44 47 49 49 59 70 73 70 65 62 66 70 62 66
56 50 42 39 37 34 42 65 63 59 52 47 40 38 38 38 37 32 23 19 26 30 35 37 36 36 35 36 41 44 46 46 46 53 63 65 65 61 58 58 68 62 62
60 63 59 46 31 36 46 62 58 55 54 47 37 28 34 36 36 31 27 21 15 24 30 33 33 34 31 32 36 42 46 45 44 45 50 53 55 56 53 52 58 55 61
63 67 64 51 36 45 53 61 57 55 47 43 32 19 23 29 30 30 32 27 21 17 17 24 28 31 31 32 34 39 40 44 44 43 44 47 52 55 53 49 52 56 62
59 68 62 52 52 56 51 53 49 58 52 38 30 26 20 26 24 31 32 28 24 19 14 13 18 25 31 31 31 33 31 33 38 41 41 41 45 52 53 47 46 53 58
61 69 64 53 57 64 52 49 52 45 50 36 40 28 13 19 26 34 28 24 21 20 19 18 13 13 21 23 24 24 24 22 29 34 35 37 36 43 48 50 49 51 55
63 74 66 62 58 66 60 60 67 55 35 23 49 18 5 20 32 24 22 26 18 14 17 19 17 12 4 12 13 15 15 16 20 20 26 31 33 35 39 46 43 49 50
54 68 73 71 66 64 52 47 60 66 35 29 68 64 7 353 359 11 17 28 14 11 11 10 8 7 3 359 351 1 3 7 10 12 14 17 22 28 35 38 26 40 44
53 55 68 78 78 88 87 41 70 85 66 7 34 104 113 276 317 335 1 15 8 9 357 356 358 355 355 351 339 348 356 357 0 0 0 1 10 22 24 24 16 23 44
69 66 77 81 85 83 85 43 49 63 102 30 357 28 112 166 146 322 332 348 354 356 347 353 352 342 342 339 336 341 346 351 352 353 354 355 360 7 15 9 6 18 35
51 60 87 86 71 63 69 61 57 52 75 113 94 49 45 34 121 165 305 325 337 331 333 330 331 332 330 329 318 331 338 341 345 345 343 345 345 351 360 2 352 352 5
313 6 77 96 88 78 74 47 85 84 68 77 63 111 151 167 217 182 245 298 311 311 318 325 335 327 322 323 318 333 333 332 335 337 336 337 335 328 334 336 341 348 346
220 239 155 145 125 170 180 130 92 76 102 95 83 269 224 224 206 187 190 266 297 306 322 318 306 319 324 326 321 331 328 328 329 330 331 330 330 325 309 309 319 332 333
207 196 176 178 184 176 147 126 95 244 131 167 269 265 255 255 216 189 189 188 300 311 315 301 311 315 322 316 322 328 327 330 331 330 326 325 325 321 317 307 313 313 319
191 175 179 174 184 194 182 138 173 266 230 228 244 251 256 269 247 234 205 193 186 262 291 298 306 314 317 307 322 319 313 325 331 335 333 330 331 335 330 317 316 313 314
178 172 179 181 180 190 178 160 224 255 236 262 247 264 278 271 277 254 223 227 205 196 247 271 265 289 308 328 338 331 318 331 330 335 335 334 332 332 331 324 324 324 325
177 183 187 186 190 197 197 197 245 237 224 274 286 267 273 272 278 276 244 221 220 195 228 274 271 294 309 330 335 335 335 337 328 336 336 334 330 327 320 309 319 340 331
186 190 185 184 196 199 196 202 235 241 224 249 271 269 275 289 290 276 249 237 235 223 211 257 292 303 298 307 321 325 336 340 326 334 344 351 344 335 341 342 344 353 355
184 185 183 188 200 206 205 218 217 228 229 236 252 254 264 268 278 273 255 241 245 245 225 217 271 280 292 304 333 332 340 346 340 347 2 3 360 2 3 11 13 8 3
178 182 186 191 196 205 205 215 212 216 227 256 270 267 264 249 251 251 243 237 232 234 234 229 263 289 291 297 315 328 347 355 345 352 3 359 1 6 10 9 10 9 0
177 165 150 144 160 186 206 200 188 178 188 269 316 305 293 294 284 270 258 216 188 184 209 244 255 288 302 303 284 273 323 338 338 347 0 352 353 6 7 1 359 1 1
152 139 147 158 171 235 242 213 179 166 184 210 287 308 308 319 327 330 330 328 199 202 218 221 239 227 247 240 242 256 288 351 328 331 5 339 2 350 342 349 352 359 6
157 148 161 164 192 247 237 211 202 154 177 214 248 282 307 334 358 358 355 2 353 331 276 219 221 239 231 227 195 183 202 243 272 296 354 324 353 337 326 342 347 357 14
167 172 179 188 193 251 267 215 167 120 156 228 246 256 259 299 306 247 40 8 338 326 298 268 228 249 240 209 190 190 192 218 316 310 333 296 325 321 327 334 345 359 10
169 178 188 187 188 247 264 291 92 127 132 290 291 281 251 264 301 315 99 341 324 315 320 322 304 300 296 263 160 125 112 104 311 299 290 244 293 320 324 324 344 360 360
174 167 180 197 192 214 239 227 98 141 144 294 321 315 301 291 311 330 204 199 275 288 310 338 339 336 327 318 29 158 173 176 237 278 261 252 287 332 324 317 328 343 348